Location: Old Broadwell Mill Observatory
(33.8015°N, 85.8137°W)
Time: 03:52:49
(UTC-06:00)

Daily predictions for brighter satellites

Satellite Brightness Start Highest point End
(mag) Time Altitude Azimuth Time Altitude Azimuth Time Altitude Azimuth
USA 215 4.3 03:25:14 10° ENE 03:31:15 39° SE 03:32:45 34° SSE
Lacrosse 5 3.8 03:44:47 24° ENE 03:44:47 24° ENE 03:46:53 10° NE
Cosmos 2074 Rocket 4.1 04:01:39 10° S 04:07:54 75° E 04:14:09 10° N
Centaur D-1AR AC-39 3.9 04:15:47 20° S 04:15:47 20° S 04:18:05 10° SSE
Cosmos 1603 3.8 04:18:59 62° N 04:18:59 62° N 04:23:43 10° NNE
H-2A ROCKET BODY 4.0 04:16:36 33° SW 04:19:20 41° S 04:46:00 10° SE
Cosmos 2369 Rocket 4.3 04:14:57 10° N 04:19:21 22° ENE 04:23:42 10° ESE
Cosmos 2184 Rocket 3.8 04:19:58 10° S 04:26:08 81° W 04:32:21 10° N
OAO 3 Copernicus 4.3 04:27:19 77° NNE 04:27:19 77° NNE 04:32:16 10° E
Cosmos 44 4.1 04:22:48 10° SSW 04:28:03 56° ESE 04:33:12 10° NE
NOAA 6 4.3 04:26:51 10° NNE 04:31:58 67° ESE 04:37:03 10° S
GPS 2-05 Rocket1 4.1 04:33:44 40° ESE 04:33:44 40° ESE 04:36:09 10° ESE
Cosmos 1536 4.5 04:35:05 10° SSE 04:38:41 33° E 04:42:18 10° NNE
Cosmos 1943 3.5 04:35:31 10° S 04:41:04 68° ESE 04:46:40 10° NNE
Cosmos 2154 Rocket 4.3 04:35:59 10° S 04:42:08 68° E 04:48:16 10° NNE
Cosmos 1536 Rocket 3.5 04:43:12 63° SW 04:43:12 63° SW 04:47:07 10° S
Meteor 1-18 Rocket 4.4 04:43:33 46° NW 04:44:43 53° W 04:50:27 10° S
Cosmos 921 Rocket 3.4 04:47:20 49° SW 04:47:20 49° SW 04:51:07 10° S
Feng Yun 1-1 Rocket 4.3 04:42:24 10° N 04:47:43 49° WNW 04:52:54 10° SW
Cosmos 1633 2.6 04:44:51 10° S 04:48:29 74° E 04:52:06 10° N
Thor Agena Rocket 3.9 04:49:39 10° SSW 04:54:10 39° WSW 04:54:10 39° WSW
Cosmos 1943 Rocket 4.4 04:53:39 10° NNE 04:57:41 20° ENE 05:01:42 10° ESE
Okean 1 Rocket 2.9 04:55:25 10° SSW 04:59:48 73° W 05:04:11 10° N
Cosmos 1610 Rocket 4.5 04:56:10 10° SSW 05:02:13 57° W 05:08:22 10° N
Cosmos 2056 Rocket 3.3 04:59:37 23° NNW 05:02:47 74° WSW 05:07:51 10° S
CZ-3 R/B 2.8 04:48:40 10° WSW 05:02:53 42° S 05:07:17 10° ESE
Cosmos 1238 Rocket 4.3 05:04:08 33° WNW 05:05:02 35° W 05:10:30 10° SSW
COSMO-SKYMED 1 2.5 05:02:35 10° SSE 05:06:55 88° ENE 05:11:17 10° NNW
PSLV R/B 3.2 05:12:06 45° NW 05:13:00 78° NNE 05:16:23 10° ESE
USA 215 3.4 05:08:01 10° NNE 05:14:16 50° NW 05:20:10 12° WSW
Cosmos 44 Rocket 4.1 05:13:50 28° WNW 05:14:57 31° NW 05:19:30 10° N
Ariane Rocket 2.9 05:09:57 10° NNE 05:15:01 88° WNW 05:20:05 10° SSW
Cosmos 1624 Rocket 4.2 05:12:49 21° NW 05:16:08 49° WSW 05:21:14 10° S
Cosmos 1602 4.2 05:13:02 10° SSW 05:16:43 38° W 05:20:25 10° N
SL-24 DEB 4.4 05:16:34 10° S 05:21:19 80° E 05:26:08 10° N
Cosmos 1300 Rocket 4.4 05:20:18 10° SW 05:24:07 28° WNW 05:27:56 10° NNW
ASTRO E2 3.4 05:21:27 16° WSW 05:24:22 48° S 05:28:16 10° E
Lacrosse 5 3.0 05:24:04 22° WNW 05:25:08 23° NW 05:29:12 10° NNE
Okean 1-7 Rocket 3.5 05:22:29 10° NNW 05:26:50 62° W 05:31:08 10° S
Meteor 1-19 Rocket 4.2 05:21:05 10° NNW 05:26:52 68° W 05:32:33 10° S
Meteor 1-28 Rocket 3.2 05:24:50 10° SSE 05:28:37 84° ENE 05:32:25 10° N
CSL-04 DEB 4.5 05:24:50 10° N 05:28:52 57° WNW 05:32:59 10° SSW
Meteor 1-11 Rocket 4.1 05:27:12 10° SSW 05:32:43 43° WNW 05:38:10 10° N
Cosmos 1295 Rocket 4.5 05:27:40 10° S 05:33:58 79° W 05:40:15 10° N
Nadezhda 3 Rocket 4.2 05:33:30 10° NNW 05:39:38 51° W 05:45:43 10° SSW
Cosmos 1346 Rocket 4.5 05:41:28 14° W 05:41:28 14° W 05:43:33 10° WSW
Cosmos 1461 4.0 05:37:36 10° S 05:41:51 50° ESE 05:45:57 10° NE
Cosmos 1340 3.2 05:39:29 10° N 05:43:14 60° E 05:46:57 10° SSE
IDEFIX/ARIANE 42P 3.6 05:39:07 10° NNE 05:44:11 51° E 05:49:15 10° S
GRACE-2 3.8 05:41:44 10° N 05:44:31 88° E 05:47:18 10° S
GRACE-1 3.8 05:42:09 10° N 05:44:57 88° WSW 05:47:43 10° S
CSL-04 Rocket 3.8 05:40:07 10° N 05:45:33 57° WNW 05:50:53 10° SSW
Tiangong 2 2.7 05:45:33 12° NW 05:47:48 25° NNE 05:50:29 10° ENE
Cosmos 2084 3.3 05:46:39 10° SW 05:50:29 51° WNW 05:54:13 10° NNE
Cosmos 1455 Rocket 3.2 05:46:59 10° S 05:51:17 78° E 05:55:37 10° N
CSL-04 Debris 4.2 05:46:15 10° N 05:51:37 60° WNW 05:57:00 10° SSW
Cosmos 1452 Rocket 3.6 05:46:47 10° NNW 05:51:59 63° WSW 05:57:11 10° S
Meteor 1-23 Rocket 4.2 05:47:00 10° NNW 05:52:30 65° W 05:57:59 10° S
COSMOS 2406 4.0 05:50:00 10° S 05:55:31 58° ESE 06:01:04 10° NNE
NOSS 3-1 (C) 3.8 05:52:16 10° SSW 05:57:54 67° ESE 06:04:05 10° NE
Meteor 2-4 Rocket 4.0 05:55:09 10° NNW 06:00:25 46° W 06:05:51 10° SSW
Cosmos 2369 Rocket 2.6 05:58:09 10° NW 06:03:32 44° WSW 06:08:53 10° S
CZ-3 Stage 3 4.3 06:00:22 10° SSW 06:04:45 34° SE 06:20:31 10° ENE
Meteor 1-5 Rocket 4.4 06:00:40 10° SSW 06:05:46 44° W 06:10:51 10° N
USA 129 2.6 06:04:10 10° SSW 06:06:01 29° W 06:07:58 10° NNW
Okean 2 3.6 06:03:08 10° NNW 06:07:12 54° W 06:11:14 10° S
CORIOLIS 4.4 06:05:33 10° NNE 06:10:55 79° ESE 06:16:16 10° S
